Location: Unspecified
(0.0000°N, 0.0000°E)
Time: 09:15:51
(UTC+00:00)

Explorer 11/Cluster Stage 4 - Pass Details

Date: 17 July 2020
Orbit: 467 x 1259 km, 28.8° (Epoch: 03 August)

Event Time Altitude Azimuth Distance (km) Brightness Sun altitude
Rises 15:45:59 0° 313° (NW) 3,776 11.1 32.4°
Reaches altitude 10° 15:48:40 10° 318° (NW) 2,925 10.7 31.8°
Maximum altitude 15:55:48 49° 31° (NNE) 1,515 8.3 30.2°
Drops below altitude 10° 16:03:40 10° 103° (ESE) 3,229 9.3 28.4°
Sets 16:06:45 0° 108° (ESE) 4,196 9.7 27.7°
